Location: 81360 Arifat, France
(43.7204°N, 2.3408°E)
Time: 00:09:53
(UTC+01:00)

Altair - All Passes

Search period start: 06 December 2025 00:00
Search period end: 16 December 2025 00:00
Orbit: 1501 x 1682 km, 47.2° (Epoch: 05 December)

Date Brightness Start Highest point End Pass type
(mag) Time Alt. Az. Time Alt. Az. Time Alt. Az.
06 Dec - 01:07:40 10° SW 01:17:18 58° SE 01:26:36 10° ENE visible
06 Dec - 03:12:07 10° WSW 03:21:58 79° NNW 03:31:26 10° ENE visible
06 Dec - 05:17:41 10° WNW 05:27:21 76° N 05:36:38 10° E visible
06 Dec - 07:22:47 10° WNW 07:32:03 64° SSW 07:41:04 10° SE visible
06 Dec - 09:28:58 10° W 09:35:18 21° SW 09:41:35 10° S daylight
06 Dec - 22:43:22 10° SSE 22:48:55 16° SE 22:54:23 10° E night (unlit)
07 Dec - 00:42:32 10° SW 00:52:07 54° SE 01:01:21 10° ENE night (unlit)
07 Dec - 02:46:47 10° WSW 02:56:41 81° NNW 03:06:11 10° ENE visible
07 Dec - 04:52:22 10° WNW 05:02:04 75° N 05:11:23 10° E visible
07 Dec - 06:57:31 10° WNW 07:06:52 68° SSW 07:15:57 10° SE visible
07 Dec - 09:03:27 10° W 09:10:14 23° SW 09:16:56 10° S daylight
07 Dec - 22:19:02 10° SSE 22:23:50 15° ESE 22:28:34 10° E night (unlit)
08 Dec - 00:17:26 10° SSW 00:26:55 51° SE 00:36:06 10° ENE night (unlit)
08 Dec - 02:21:28 10° WSW 02:31:25 84° NNW 02:40:58 10° ENE visible
08 Dec - 04:27:03 10° WNW 04:36:47 74° N 04:46:08 10° E visible
08 Dec - 06:32:14 10° WNW 06:41:41 71° SSW 06:50:49 10° SE visible
08 Dec - 08:37:59 10° W 08:45:09 26° SW 08:52:13 10° S daylight
08 Dec - 21:54:55 10° SE 21:58:45 13° ESE 22:02:32 10° E night (unlit)
08 Dec - 23:52:21 10° SSW 00:01:44 47° SE 00:10:50 10° ENE night (unlit)
09 Dec - 01:56:10 10° WSW 02:06:09 86° NNW 02:15:44 10° ENE visible
09 Dec - 04:01:44 10° W 04:11:29 73° N 04:20:52 10° E visible
09 Dec - 06:06:57 10° WNW 06:16:29 75° SSW 06:25:40 10° SE visible
09 Dec - 08:12:32 10° WNW 08:20:03 28° SW 08:27:27 10° S daylight
09 Dec - 21:31:19 10° SE 21:33:40 11° ESE 21:36:01 10° ESE night (unlit)
09 Dec - 23:27:17 10° SSW 23:36:33 44° SE 23:45:33 10° ENE night (unlit)
10 Dec - 01:30:52 10° WSW 01:40:52 89° NNW 01:50:29 10° ENE visible
10 Dec - 03:36:25 10° W 03:46:12 72° N 03:55:36 10° E visible
10 Dec - 05:41:40 10° WNW 05:51:16 79° SSW 06:00:30 10° ESE visible
10 Dec - 07:47:08 10° WNW 07:54:58 31° SW 08:02:38 10° S daylight
10 Dec - 23:02:16 10° SSW 23:11:23 41° SE 23:20:15 10° ENE night (unlit)
11 Dec - 01:05:34 10° WSW 01:15:36 88° SSE 01:25:15 10° ENE visible
11 Dec - 03:11:04 10° W 03:20:54 72° N 03:30:20 10° E visible
11 Dec - 05:16:23 10° WNW 05:26:02 82° SSW 05:35:19 10° ESE visible
11 Dec - 07:21:45 10° WNW 07:29:51 34° SW 07:37:46 10° SSE visible
11 Dec - 22:37:16 10° SSW 22:46:13 38° SE 22:54:56 10° ENE night (unlit)
12 Dec - 00:40:17 10° WSW 00:50:20 85° SSE 01:00:01 10° ENE night (unlit)
12 Dec - 02:45:44 10° W 02:55:36 72° N 03:05:04 10° E visible
12 Dec - 04:51:07 10° WNW 05:00:49 86° SSW 05:10:08 10° ESE visible
12 Dec - 06:56:23 10° WNW 07:04:45 37° SW 07:12:53 10° SSE visible
12 Dec - 22:12:18 10° SSW 22:21:03 35° SE 22:29:36 10° ENE visible
13 Dec - 00:15:01 10° WSW 00:25:04 82° SSE 00:34:47 10° ENE night (unlit)
13 Dec - 02:20:23 10° W 02:30:17 72° N 02:39:48 10° E visible
13 Dec - 04:25:49 10° WNW 04:35:34 89° SSW 04:44:56 10° ESE visible
13 Dec - 06:31:02 10° WNW 06:39:37 40° SW 06:47:57 10° SSE visible
13 Dec - 21:47:22 10° S 21:55:54 32° SE 22:04:15 10° ENE visible
13 Dec - 23:49:46 10° WSW 23:59:49 79° SSE 00:09:33 10° ENE night (unlit)
14 Dec - 01:55:03 10° W 02:04:59 73° N 02:14:32 10° E visible
14 Dec - 04:00:31 10° WNW 04:10:19 88° NNE 04:19:43 10° ESE visible
14 Dec - 06:05:42 10° WNW 06:14:29 43° SW 06:23:00 10° SSE visible
14 Dec - 21:22:29 10° S 21:30:45 30° SE 21:38:52 10° ENE visible
14 Dec - 23:24:31 10° SW 23:34:34 75° SSE 23:44:18 10° ENE night (unlit)
15 Dec - 01:29:41 10° W 01:39:40 73° N 01:49:16 10° E visible
15 Dec - 03:35:13 10° WNW 03:45:03 86° NNE 03:54:29 10° ESE visible
15 Dec - 05:40:23 10° WNW 05:49:21 47° SW 05:58:01 10° SSE visible
15 Dec - 07:49:14 10° WSW 07:52:04 12° WSW 07:54:53 10° SW visible
15 Dec - 20:57:39 10° S 21:05:37 27° SE 21:13:27 10° ENE visible
15 Dec - 22:59:18 10° SW 23:09:19 72° SSE 23:19:03 10° ENE visible
